TA1SW-13 Weather Reports


time (UTC)temp
F
wind
direction
speed
knots
gust
knots
rain 1hr
in
rain 24hr
in
rain mn
in
humidity
%
barometer
mb
20260906082002 84 0 0.0 0.0 0.00 0.00 0.00 50 1002.9
20260906080006 84 0 0.0 0.0 0.00 0.00 0.00 50 1002.8
20260906074003 84 0 0.0 0.0 0.00 0.00 0.00 49 1002.7
20260906072002 84 0 0.0 0.0 0.00 0.00 0.00 49 1002.6
20260906070003 83 0 0.0 0.0 0.00 0.00 0.00 49 1002.3
20260906064003 83 0 0.0 0.0 0.00 0.00 0.00 48 1002.2
20260906062002 83 0 0.0 0.0 0.00 0.00 0.00 48 1002.0
20260906060002 83 0 0.0 0.0 0.00 0.00 0.00 47 1001.9
20260906054003 83 0 0.0 0.0 0.00 0.00 0.00 46 1001.9
20260906052003 83 0 0.0 0.0 0.00 0.00 0.00 45 1001.6
20260906050003 82 0 0.0 0.0 0.00 0.00 0.00 45 1001.6
20260906044002 82 0 0.0 0.0 0.00 0.00 0.00 45 1001.6
20260906042003 81 0 0.0 0.0 0.00 0.00 0.00 45 1001.4
20260906040002 81 0 0.0 0.0 0.00 0.00 0.00 45 1001.4
20260906034002 81 0 0.0 0.0 0.00 0.00 0.00 45 1001.2
20260906032002 81 0 0.0 0.0 0.00 0.00 0.00 45 1001.0
20260906030005 82 0 0.0 0.0 0.00 0.00 0.00 45 1000.9
20260906024002 82 0 0.0 0.0 0.00 0.00 0.00 44 1000.7
20260906022002 82 0 0.0 0.0 0.00 0.00 0.00 44 1000.7
20260906020004 82 0 0.0 0.0 0.00 0.00 0.00 45 1000.8
20260906014002 82 0 0.0 0.0 0.00 0.00 0.00 45 1000.8
20260906012002 82 0 0.0 0.0 0.00 0.00 0.00 45 1001.0
20260906010003 82 0 0.0 0.0 0.00 0.00 0.00 45 1000.9
20260906004003 82 0 0.0 0.0 0.00 0.00 0.00 45 1000.7
20260906002003 82 0 0.0 0.0 0.00 0.00 0.00 45 1000.8
20260906000002 82 0 0.0 0.0 0.00 0.00 0.00 45 1000.7
20260905234002 82 0 0.0 0.0 0.00 0.00 0.00 45 1000.8
20260905232002 82 0 0.0 0.0 0.00 0.00 0.00 45 1000.8
20260905230003 82 0 0.0 0.0 0.00 0.00 0.00 45 1000.9
20260905224002 81 0 0.0 0.0 0.00 0.00 0.00 46 1001.0
20260905222003 81 0 0.0 0.0 0.00 0.00 0.00 47 1001.2
20260905220003 81 0 0.0 0.0 0.00 0.00 0.00 47 1001.3
20260905214003 80 0 0.0 0.0 0.00 0.00 0.00 50 1001.3
20260905212003 81 0 0.0 0.0 0.00 0.00 0.00 49 1001.4
20260905210003 81 0 0.0 0.0 0.00 0.00 0.00 50 1001.5
20260905204003 82 0 0.0 0.0 0.00 0.00 0.00 48 1001.4
20260905202002 82 0 0.0 0.0 0.00 0.00 0.00 48 1001.5
20260905200003 82 0 0.0 0.0 0.00 0.00 0.00 47 1001.5
20260905194002 83 0 0.0 0.0 0.00 0.00 0.00 47 1001.6
20260905192003 83 0 0.0 0.0 0.00 0.00 0.00 47 1001.7
20260905190002 82 0 0.0 0.0 0.00 0.00 0.00 49 1001.7
20260905184003 82 0 0.0 0.0 0.00 0.00 0.00 47 1001.8
20260905182003 83 0 0.0 0.0 0.00 0.00 0.00 45 1001.9
20260905180004 84 0 0.0 0.0 0.00 0.00 0.00 43 1001.9
20260905174003 84 0 0.0 0.0 0.00 0.00 0.00 45 1001.7
20260905172002 84 0 0.0 0.0 0.00 0.00 0.00 43 1001.4
20260905170003 84 0 0.0 0.0 0.00 0.00 0.00 40 1001.5
20260905164003 85 0 0.0 0.0 0.00 0.00 0.00 37 1001.3
20260905162002 85 0 0.0 0.0 0.00 0.00 0.00 37 1001.1
20260905160002 86 0 0.0 0.0 0.00 0.00 0.00 36 1001.1
20260905154002 86 0 0.0 0.0 0.00 0.00 0.00 35 1001.3
20260905152003 86 0 0.0 0.0 0.00 0.00 0.00 34 1001.1
20260905150005 86 0 0.0 0.0 0.00 0.00 0.00 34 1001.3
20260905144003 86 0 0.0 0.0 0.00 0.00 0.00 33 1001.4
20260905142002 86 0 0.0 0.0 0.00 0.00 0.00 33 1001.4
20260905140003 86 0 0.0 0.0 0.00 0.00 0.00 32 1001.4
20260905134002 86 0 0.0 0.0 0.00 0.00 0.00 33 1001.6
20260905132003 86 0 0.0 0.0 0.00 0.00 0.00 34 1001.7
20260905130003 86 0 0.0 0.0 0.00 0.00 0.00 33 1001.7
20260905124003 86 0 0.0 0.0 0.00 0.00 0.00 35 1001.9
20260905122002 86 0 0.0 0.0 0.00 0.00 0.00 34 1002.1
20260905120003 86 0 0.0 0.0 0.00 0.00 0.00 36 1002.2
20260905114003 85 0 0.0 0.0 0.00 0.00 0.00 37 1002.4
20260905112002 85 0 0.0 0.0 0.00 0.00 0.00 38 1002.5
20260905110002 85 0 0.0 0.0 0.00 0.00 0.00 39 1002.6
20260905104003 85 0 0.0 0.0 0.00 0.00 0.00 42 1002.6
20260905102002 84 0 0.0 0.0 0.00 0.00 0.00 43 1002.5
20260905100004 84 0 0.0 0.0 0.00 0.00 0.00 43 1002.7
20260905094003 83 0 0.0 0.0 0.00 0.00 0.00 45 1002.7
20260905092003 83 0 0.0 0.0 0.00 0.00 0.00 45 1002.9
20260905090005 83 0 0.0 0.0 0.00 0.00 0.00 46 1003.0
20260905084003 82 0 0.0 0.0 0.00 0.00 0.00 47 1003.1